Flag for Canada Weather past 2 weeks in St. Albert, Alberta, Canada

Now
39 °F

Clear.


Feels Like: 37 °F
Forecast: 36 / 60 °F
Wind: 3 mph from South

Location: Edmonton Municipal


UV Index: 3 (Moderate)

Visibility: 9 mi


Pressure: 30.08 "Hg

Humidity: 56%

Dew point: 25 °F

Location of St. AlbertLocation

Historic Weather in St. Albert

°F

St. Albert temperature yesterday

Maximum temperature yesterday: 55 °F (at 4:00 PM)
Minimum temperature yesterday: 39 °F (at 7:00 AM)
Average temperature yesterday: 48 °F

Past Weeks' High & Low Weather Summary

 TemperatureHumidityPressure
High66 °F (Apr 8, 4:00 PM)74% (Apr 19, 7:00 AM)30.50 "Hg (Apr 19, 7:00 AM)
Low21 °F (Apr 12, 7:01 AM)23% (Apr 14, 6:00 PM)29.54 "Hg (Apr 8, 7:00 PM)
Average38 °F48%29.95 "Hg
* Reported Apr 6 2:00 AM — Apr 21 2:00 AM, St. Albert, Weather by CustomWeather, © 2014

Note: Actual official high and low records may vary slightly from our data, if they occured in-between our weather recording intervals... More about our weather records

Advertising

Historic Weather Conditions — Data for Previous 24 hours

 ConditionsComfort  
Time TempWeatherWind HumidityBarometerVisibility
2:00 AM
Apr 21
41 °FPassing clouds.3 mph53%30.09 "Hg9 mi
1:50 AM41 °FPassing clouds.6 mph57%30.03 "Hg9 mi
1:00 AM43 °FPassing clouds.2 mph49%30.08 "Hg9 mi
12:00 AM45 °FPassing clouds.6 mph46%30.07 "Hg9 mi
11:00 PM
Apr 20
46 °FClear.6 mph43%30.06 "Hg9 mi
10:00 PM50 °FOvercast.7 mph37%30.05 "Hg9 mi
9:00 PM52 °FPartly sunny.3 mph35%30.04 "Hg9 mi
8:00 PM52 °FPassing clouds.5 mph32%30.03 "Hg9 mi
7:00 PM55 °FSunny.8 mph33%30.03 "Hg9 mi
6:00 PM55 °FPartly sunny.No wind38%30.02 "Hg9 mi
5:00 PM55 °FScattered clouds.7 mph41%30.01 "Hg9 mi
4:00 PM55 °FBroken clouds.9 mph41%30.01 "Hg9 mi
3:00 PM54 °FPassing clouds.16 mph47%30.00 "Hg9 mi
2:55 PM54 °FPassing clouds.14 mph47%29.95 "Hg9 mi
2:00 PM50 °FPartly sunny.9 mph50%29.99 "Hg9 mi
1:51 PM52 °FMostly cloudy.8 mph47%29.94 "Hg9 mi
1:00 PM48 °FOvercast.13 mph50%29.98 "Hg9 mi
12:00 PM48 °FMostly cloudy.14 mph54%29.98 "Hg9 mi
11:00 AM45 °FMostly cloudy.15 mph61%29.95 "Hg9 mi
10:00 AM45 °FScattered clouds.18 mph61%29.91 "Hg9 mi
9:00 AM45 °FScattered clouds.6 mph61%29.89 "Hg9 mi
8:00 AM41 °FMostly cloudy.6 mph70%29.88 "Hg8 mi
7:00 AM39 °FOvercast.3 mph70%29.85 "Hg8 mi
6:00 AM41 °FLight rain. Overcast.7 mph70%29.85 "Hg6 mi
5:00 AM41 °FOvercast.No wind70%29.82 "Hg9 mi
4:00 AM41 °FLight rain. Haze.7 mph70%29.78 "Hg9 mi
3:00 AM43 °FLight rain. Overcast.2 mph61%29.78 "Hg9 mi
Weather by CustomWeather, © 2014

See weather overview